Weather History for KAUS - December, 2012

Change the Weather History Date:

Monday, December 3, 2012

  Actual Average Record
Temperature  
Mean Temperature 71 °F 53 °F  
Max Temperature 81 °F 66 °F 86 °F (2013)
Min Temperature 61 °F 40 °F 27 °F (1976)
Degree Days  
Heating Degree Days 0 13  
Month to date heating degree days 0 39  
Since 1 July heating degree days 254 324  
Cooling Degree Days 6 1  
Month to date cooling degree days 25 3  
Year to date cooling degree days 3151 2744  
Growing Degree Days 22 (Base 50)    
Moisture  
Dew Point 61 °F    
Average Humidity 74    
Maximum Humidity 93    
Minimum Humidity 54    
Precipitation  
Precipitation 0.00 in 0.08 in 0.61 in (1949)
Month to date precipitation 0.00 0.26  
Year to date precipitation 34.30 33.16  
Snow  
Snow 0.00 in - - ()
Month to date snowfall 0.0  
Since 1 July snowfall 0.0  
Snow Depth 0.00 in    
Sea Level Pressure  
Sea Level Pressure 30.01 in    
Wind  
Wind Speed 8 mph (South)    
Max Wind Speed 21 mph    
Max Gust Speed 26 mph    
Visibility 10 miles    
Events      
T = Trace of Precipitation, MM = Missing Value Source: NWS Daily Summary

Daily Weather History Graph

Daily Weather History Graph

Search for Another Location

Airport or City:

Trip Planner

Search our weather history database for the weather conditions in past years. The results will help you decide how hot, cold, wet, or windy it might be!

Date:

Astronomy

Dec. 03, 2012 Rise Set
Actual Time 7:11 AM CST 5:30 PM CST
Civil Twilight 6:45 AM CST 5:56 PM CST
Nautical Twilight 6:15 AM CST 6:25 PM CST
Astronomical Twilight 5:46 AM CST 6:54 PM CST
Moon 10:06 PM CST (12/3) 10:45 AM CST (12/3)
Length of Visible Light 11h 11m
Length of Day
10h 18m
Waning Gibbous, 78% of the Moon is Illuminated
Dec 3
Waning Gibbous
Dec 6
Last Quarter
Dec 13
New
Dec 19
First Quarter
Dec 28
Full

Hourly Weather History & Observations

Time (CST) Temp. Heat Index Dew Point Humidity Pressure Visibility Wind Dir Wind Speed Gust Speed Precip Events Conditions
12:53 AM 66.9 °F - 64.0 °F 90% 30.05 in 10.0 mi South 9.2 mph - N/A   Mostly Cloudy
1:53 AM 66.9 °F - 63.0 °F 87% 30.04 in 10.0 mi South 10.4 mph - N/A   Mostly Cloudy
2:53 AM 66.9 °F - 63.0 °F 87% 30.04 in 10.0 mi South 9.2 mph - N/A   Mostly Cloudy
3:53 AM 66.0 °F - 63.0 °F 90% 30.03 in 10.0 mi South 5.8 mph - N/A   Overcast
4:42 AM 62.6 °F - 60.8 °F 94% 30.04 in 10.0 mi South 4.6 mph - N/A   Scattered Clouds
4:53 AM 62.1 °F - 61.0 °F 96% 30.02 in 10.0 mi South 5.8 mph - N/A   Scattered Clouds
5:53 AM 66.0 °F - 64.0 °F 93% 30.02 in 10.0 mi SSE 5.8 mph - N/A   Mostly Cloudy
6:53 AM 66.0 °F - 64.0 °F 93% 30.03 in 10.0 mi SSE 3.5 mph - N/A   Mostly Cloudy
7:53 AM 66.0 °F - 64.0 °F 93% 30.04 in 10.0 mi South 6.9 mph - N/A   Mostly Cloudy
8:53 AM 68.0 °F - 64.4 °F 88% 30.07 in 10.0 mi South 10.4 mph - N/A   Overcast
9:45 AM 71.6 °F - 62.6 °F 73% 30.07 in 10.0 mi SSW 11.5 mph - N/A   Mostly Cloudy
9:53 AM 73.9 °F - 63.0 °F 68% 30.05 in 10.0 mi South 13.8 mph 20.7 mph N/A   Mostly Cloudy
10:53 AM 73.0 °F - 61.0 °F 66% 30.04 in 10.0 mi SSW 16.1 mph 20.7 mph N/A   Scattered Clouds
11:53 AM 79.0 °F - 60.1 °F 52% 30.01 in 10.0 mi South 15.0 mph 21.9 mph N/A   Scattered Clouds
12:53 PM 78.1 °F - 60.1 °F 54% 29.99 in 10.0 mi South 10.4 mph - N/A   Mostly Cloudy
1:53 PM 79.0 °F - 60.1 °F 52% 29.98 in 10.0 mi SSW 10.4 mph - N/A   Mostly Cloudy
2:53 PM 79.0 °F - 62.1 °F 56% 29.96 in 10.0 mi SW 8.1 mph - N/A   Mostly Cloudy
3:53 PM 80.1 °F 81.2 °F 62.1 °F 54% 29.95 in 10.0 mi SW 5.8 mph - N/A   Scattered Clouds
4:53 PM 79.0 °F - 61.0 °F 54% 29.94 in 10.0 mi South 9.2 mph - N/A   Partly Cloudy
5:53 PM 75.0 °F - 57.9 °F 55% 29.94 in 10.0 mi SSE 8.1 mph - N/A   Partly Cloudy
6:53 PM 66.9 °F - 57.0 °F 70% 29.96 in 10.0 mi SW 3.5 mph - N/A   Partly Cloudy
7:53 PM 64.0 °F - 55.9 °F 75% 29.98 in 10.0 mi Calm Calm - N/A   Clear
8:53 PM 64.0 °F - 57.0 °F 78% 29.99 in 10.0 mi South 5.8 mph - N/A   Partly Cloudy
9:53 PM 64.9 °F - 57.9 °F 78% 29.99 in 10.0 mi South 8.1 mph - N/A   Scattered Clouds
10:53 PM 66.0 °F - 62.1 °F 87% 30.00 in 10.0 mi South 8.1 mph - N/A   Scattered Clouds
11:53 PM 64.4 °F - 60.8 °F 88% 30.04 in 10.0 mi SSW 4.6 mph - N/A   Mostly Cloudy